Location: Colonia Mina de C?rbuni
(46.1667°N, 22.7167°E)
Time: 06:05:03
(UTC+00:00)

Vanguard 3 - Pass Details

Date: 14 April 2024
Orbit: 509 x 3232 km, 33.3° (Epoch: 29 May)

Event Time Altitude Azimuth Distance (km) Brightness Sun altitude
Exits shadow 02:20:15 - 199° (SSW) 5,757 11.0 -14.2°
Reaches altitude 10° 02:28:19 10° 170° (S) 3,995 10.5 -13.0°
Maximum altitude 02:30:28 11° 158° (SSE) 3,689 10.4 -12.7°
Drops below altitude 10° 02:32:26 10° 145° (SE) 3,530 10.5 -12.4°
Sets 02:37:56 0° 110° (ESE) 3,850 11.3 -11.5°
